RH
23 28 27 42 48 47 48 41 24 36 21 19 14 11 3 1 2 2 2 2 3 4 4 5 6 7 9 9 9 8 9 8 7 8 7 5 4 4 3 3 3 4 5 6 7 9 10
24 26 26 45 43 40 31 18 19 16 15 12 4 2 1 2 2 2 3 3 3 3 4 5 6 7 8 9 10 11 13 14 15 16 14 10 8 7 5 4 4 4 5 7 7 9 11
27 34 36 57 46 40 26 16 17 9 4 2 1 0 1 3 3 3 3 3 4 4 5 6 6 7 8 9 10 11 12 13 15 16 17 18 15 14 15 14 13 9 9 9 12 13 14
40 42 57 55 39 22 19 16 7 3 2 2 3 3 2 2 3 4 3 4 4 5 5 6 7 7 7 8 9 10 11 12 12 13 15 17 18 18 17 15 14 15 14 14 13 14 15
22 45 49 45 26 21 16 7 2 3 4 6 7 6 6 5 5 5 5 5 5 5 6 6 7 8 8 7 7 8 8 9 10 12 13 14 14 15 15 17 17 18 15 14 14 16 16
27 39 29 27 20 13 5 3 2 4 5 6 5 5 4 4 4 4 4 4 4 5 5 5 6 6 6 7 8 8 8 8 9 13 16 17 17 18 18 19 16 16 17 13 10 13 14
36 29 28 15 10 8 2 3 3 5 5 4 4 3 2 3 3 4 4 5 5 5 5 5 4 4 4 5 5 8 11 10 9 11 15 17 18 17 20 19 18 22 20 17 13 10 14
33 28 11 9 10 2 2 4 5 5 4 3 2 3 3 4 4 4 5 6 5 5 5 4 4 4 4 4 5 7 10 14 11 11 14 17 17 16 17 17 18 19 20 19 16 13 10
28 20 8 8 2 2 2 4 6 6 3 3 4 4 4 6 7 7 7 7 7 7 6 6 5 5 5 5 6 10 11 16 17 13 13 14 14 14 12 12 14 15 17 18 20 22 16
23 15 6 3 0 1 2 3 5 6 6 6 6 5 6 8 8 8 9 9 8 7 7 8 7 6 5 5 6 10 12 21 22 22 17 14 14 14 11 11 12 14 16 17 18 20 22
23 12 4 1 0 1 1 2 4 6 7 7 7 7 7 8 8 8 8 7 6 6 6 6 6 6 5 5 5 11 22 27 31 34 32 25 19 18 17 15 13 16 14 19 21 23 26
20 14 5 1 0 1 2 2 3 5 6 7 7 7 7 7 6 4 3 4 5 5 5 5 5 6 6 6 7 16 26 26 25 24 24 28 30 24 21 18 10 14 19 24 22 21 25
18 16 8 2 1 0 2 2 2 3 3 3 4 6 4 2 2 2 2 3 4 4 4 5 6 8 11 13 14 25 25 21 18 16 20 22 26 30 28 23 18 13 15 20 22 25 25
17 16 12 5 2 1 0 1 2 2 2 2 2 1 1 2 3 6 7 6 6 8 8 10 14 14 16 20 27 24 20 15 13 23 28 27 27 30 29 26 20 18 22 24 28 23 24
14 15 14 10 5 4 2 1 1 1 1 2 2 4 10 18 19 13 12 12 11 13 13 14 16 17 20 22 19 16 13 28 31 30 33 34 36 34 32 24 19 18 22 27 26 26 30
10 9 10 9 8 7 6 5 5 5 6 9 14 17 22 26 25 22 20 21 22 22 23 23 23 22 20 24 41 37 38 36 37 37 36 36 34 31 28 24 24 24 30 30 31 34 32
10 9 9 8 7 6 6 6 7 6 5 6 7 13 19 30 29 25 26 30 38 42 38 33 38 41 44 49 45 36 35 37 45 43 43 43 41 34 36 37 38 39 39 36 36 38 37
12 10 10 10 9 8 9 10 9 8 7 7 7 8 12 26 31 30 30 35 37 38 39 38 34 32 38 41 39 34 38 49 58 52 50 49 48 46 47 47 48 42 41 39 37 36 38
12 11 10 10 10 10 10 10 11 10 8 8 7 8 9 16 23 27 26 29 32 34 35 37 44 50 53 52 51 50 48 50 57 57 53 48 45 44 40 39 43 43 45 51 45 47 49
13 12 11 11 10 11 12 13 11 10 10 10 10 9 9 11 14 16 17 21 20 19 20 28 36 38 41 42 44 46 47 46 44 43 42 40 39 37 40 43 51 59 60 60 50 44 45
18 14 12 10 10 10 12 14 12 10 10 11 12 11 10 11 11 12 13 14 16 16 18 21 24 23 23 25 26 30 33 38 40 37 33 32 36 44 48 56 56 54 52 51 49 51 42
22 18 15 12 11 11 13 16 14 11 11 11 13 13 11 11 12 13 14 15 18 20 21 25 29 41 46 52 56 57 50 55 62 67 64 61 48 45 44 47 48 49 58 58 55 57 51
26 22 18 16 15 14 14 16 18 16 14 12 13 14 13 12 11 11 13 16 18 21 23 27 32 30 33 35 52 65 66 69 72 68 74 78 76 69 58 56 59 62 63 57 56 64 57
30 26 22 17 17 17 17 17 18 17 15 12 13 14 15 13 11 13 14 16 17 18 18 21 23 23 28 29 30 35 39 65 66 72 76 75 74 72 61 60 62 72 60 55 52 59 60
34 31 26 22 18 15 14 16 16 16 16 14 12 15 16 16 14 14 16 17 18 18 18 17 16 15 15 17 19 24 31 61 75 79 79 78 71 63 61 64 53 70 62 56 48 44 62
34 35 32 28 22 18 16 14 14 15 16 15 13 15 17 18 19 18 17 17 17 16 14 13 12 15 28 28 42 55 67 72 70 77 87 88 86 81 76 67 52 79 69 60 52 42 51
32 35 36 33 29 24 19 18 17 16 16 16 15 16 19 19 20 21 20 18 16 13 12 12 14 25 46 54 43 47 82 79 73 74 84 92 88 86 86 70 62 80 67 62 62 62 53
36 35 39 37 35 28 22 20 20 19 19 18 18 18 19 20 22 22 20 17 15 14 13 15 19 28 38 54 62 68 71 70 72 80 90 96 88 87 73 71 79 80 75 72 66 55 61
36 37 37 37 34 31 25 21 20 21 21 21 20 20 20 20 19 16 14 14 15 16 16 20 60 67 66 79 76 70 71 66 70 70 82 80 94 79 78 78 100 100 80 72 62 55 56
Wind_Speed
9 11 10 8 21 9 6 8 11 17 16 19 22 25 33 38 38 36 33 31 30 29 25 22 22 21 20 19 17 18 18 18 19 20 18 16 17 17 16 17 14 13 12 11 8 7 7
12 10 12 11 12 8 8 9 12 16 19 24 29 32 35 38 37 34 31 28 25 23 21 19 17 16 16 17 13 13 14 15 13 12 11 12 11 10 10 10 10 11 8 10 6 3 4
10 13 15 19 11 10 9 14 15 22 29 33 35 38 39 39 36 32 29 25 21 19 17 15 14 13 13 14 13 12 12 12 11 9 7 5 8 9 7 7 8 5 4 3 3 4 4
14 12 22 17 11 11 14 18 24 32 34 37 39 39 38 36 32 29 28 25 21 17 15 14 12 10 8 9 9 10 10 8 7 7 5 4 3 5 6 4 5 3 1 1 3 4 5
14 18 16 12 12 15 20 25 34 37 38 37 35 34 34 32 30 28 26 23 21 20 18 15 13 11 9 7 7 6 6 5 5 6 5 5 5 4 6 7 4 4 2 5 6 5 4
20 17 14 14 14 20 27 34 37 39 37 35 34 33 32 30 28 26 24 22 21 19 17 16 14 12 10 8 5 4 5 5 4 5 5 5 6 6 8 8 5 5 8 7 4 3 6
18 19 18 18 20 24 36 40 40 38 36 35 36 34 31 30 28 25 23 22 20 18 16 13 12 9 8 8 6 3 4 5 3 4 4 5 4 4 4 8 7 7 7 10 12 8 9
18 17 18 23 24 31 39 39 40 37 36 35 34 33 30 26 23 20 19 13 12 10 8 6 5 3 3 5 5 4 2 3 3 3 2 4 6 6 7 8 9 8 9 9 14 14 11
19 20 22 25 27 36 40 39 38 37 35 32 30 27 24 21 19 16 14 12 10 8 6 4 3 3 5 6 8 6 3 2 4 4 5 7 8 8 9 10 12 10 11 11 10 14 13
21 21 23 26 32 40 41 40 37 36 34 30 25 23 22 20 18 15 14 11 9 9 10 9 9 9 8 9 10 7 5 5 5 6 7 9 11 13 12 12 11 13 14 14 13 12 12
24 26 27 28 34 39 39 40 38 36 34 31 27 25 24 22 19 18 16 15 14 14 15 15 15 13 13 13 12 10 7 9 10 12 13 13 14 15 17 16 12 13 16 15 13 14 17
27 28 28 29 33 36 38 39 37 35 33 31 28 26 25 23 21 21 20 19 18 18 20 18 17 18 18 16 13 10 10 11 13 15 15 16 17 18 21 22 16 15 14 13 14 16 19
28 29 31 31 33 35 34 36 36 34 32 29 28 27 25 24 23 22 22 22 21 21 19 19 18 18 17 16 11 10 12 16 19 20 20 18 18 19 22 23 22 19 15 15 17 17 20
30 30 31 32 32 33 34 33 33 33 32 31 29 28 25 23 22 21 20 19 19 17 18 18 17 14 13 12 13 15 17 21 19 19 19 20 19 20 22 20 20 17 15 16 20 22 22
31 31 32 33 33 32 31 32 30 30 30 30 28 25 21 18 16 13 12 12 12 14 14 14 14 14 14 18 17 20 18 13 14 16 16 16 15 16 17 18 19 18 19 22 26 28 28
32 33 34 33 32 31 30 28 27 26 25 24 24 22 18 15 13 12 11 10 9 9 10 13 14 13 14 14 9 7 10 9 9 11 10 11 12 13 13 15 18 20 24 27 31 33 35
33 34 33 33 30 28 27 25 22 20 19 19 20 20 18 13 13 12 11 9 7 7 8 9 9 9 11 11 9 8 10 10 10 11 11 12 14 17 17 18 20 23 27 31 34 35 37
35 35 35 33 31 27 25 23 20 18 17 16 14 16 16 16 14 13 11 10 9 7 7 8 7 8 9 9 10 11 13 14 15 16 15 15 18 20 21 22 21 25 28 32 37 38 37
36 35 35 33 31 29 26 23 20 17 16 14 12 12 14 16 16 15 13 11 9 9 9 8 7 8 10 12 14 15 17 19 20 22 21 21 21 23 25 25 22 23 29 35 40 42 41
38 37 36 34 33 31 27 24 22 20 17 15 13 12 13 15 14 13 12 10 9 9 9 8 8 9 11 13 15 17 19 20 21 22 23 23 23 24 27 29 26 22 27 34 40 40 42
38 37 37 35 34 32 29 26 25 23 20 18 14 12 13 14 14 13 12 11 10 10 8 6 6 9 12 14 16 17 19 20 22 24 26 26 24 25 26 30 32 26 30 31 33 32 37
39 39 38 36 34 32 31 29 27 25 23 21 17 13 12 13 14 13 13 11 10 10 9 9 10 11 15 18 21 24 25 26 26 28 30 29 31 31 26 36 36 28 29 35 33 32 37
43 40 38 37 36 35 34 32 29 27 27 25 21 18 15 15 15 14 13 13 12 13 13 14 16 19 21 23 22 21 26 29 32 32 30 31 36 39 33 33 34 24 30 34 35 36 40
45 43 40 38 38 37 36 35 32 30 29 28 25 22 20 18 18 17 16 17 17 17 16 18 21 25 27 29 30 32 35 34 36 37 35 36 38 39 39 38 35 19 35 38 41 42 43
47 45 43 40 39 38 38 37 35 32 31 30 29 27 25 24 22 22 22 21 22 23 23 23 26 29 32 33 37 39 39 43 39 35 33 34 35 39 38 41 42 26 38 41 44 47 46
46 45 44 42 40 37 36 36 35 34 33 32 32 31 30 28 27 27 28 27 27 28 30 30 30 32 35 39 44 44 46 45 42 36 30 34 36 36 36 42 44 37 45 48 52 54 55
46 45 44 43 40 39 38 37 36 34 33 33 33 33 32 32 32 32 31 32 33 34 35 36 37 39 43 44 46 47 48 48 45 38 33 33 37 36 38 42 44 44 49 50 53 57 60
46 45 45 43 40 39 39 39 38 37 36 36 36 36 36 36 35 34 35 35 37 39 40 41 43 44 47 48 49 50 52 48 43 38 34 35 36 34 39 43 42 47 53 56 59 62 61
48 45 46 43 43 40 39 40 41 40 38 38 38 38 38 37 37 37 35 38 42 45 47 47 50 52 56 51 50 50 49 43 39 37 31 37 35 38 42 45 44 51 58 60 63 62 63
Wind_Direction
219 225 227 209 161 148 163 189 172 164 175 173 170 166 152 142 140 138 138 138 138 133 129 124 118 114 105 99 100 95 89 88 94 102 103 109 119 124 128 123 118 112 106 101 96 86 79
207 222 214 220 157 189 203 192 179 182 172 163 154 148 144 141 138 137 141 141 139 135 131 126 121 115 109 104 97 95 90 86 82 87 105 112 109 110 103 99 101 110 119 115 103 62 59
189 188 185 174 193 228 198 176 163 157 151 145 142 143 143 139 136 138 141 143 138 131 133 129 120 118 116 103 95 83 77 74 78 86 85 100 122 121 120 123 123 120 114 85 47 330 327
193 192 180 196 205 197 172 165 155 148 145 143 141 137 139 140 142 143 142 142 141 142 136 127 120 115 103 93 80 70 63 56 56 58 60 91 95 90 107 129 132 126 82 283 218 250 255
181 180 197 199 187 172 163 157 151 146 144 141 138 136 137 139 140 138 137 137 138 138 132 122 113 106 93 80 71 63 56 49 47 64 54 9 10 12 13 355 323 304 248 207 207 250 273
170 186 193 183 177 161 157 156 152 150 147 146 144 143 144 144 139 135 134 132 131 130 127 122 115 109 98 91 78 46 35 23 11 65 64 35 353 343 338 329 325 320 335 335 313 315 308
169 177 173 174 168 163 156 158 157 154 152 152 151 146 143 141 139 136 135 137 138 134 128 122 119 110 87 75 56 41 17 355 341 22 33 4 347 321 321 313 332 347 334 321 311 306 313
166 178 169 166 166 160 160 161 160 158 158 156 157 155 152 149 147 146 150 139 143 135 133 126 124 108 40 28 21 351 336 318 316 352 325 290 313 332 324 332 326 342 333 331 318 304 300
174 178 169 165 165 161 164 165 165 165 166 166 166 164 160 160 161 162 166 171 171 188 199 211 239 300 316 325 338 330 276 281 302 301 289 293 310 308 318 328 326 319 313 315 310 304 320
178 177 170 165 167 165 168 170 171 173 176 177 177 177 178 181 183 186 193 202 215 228 234 246 252 267 280 295 309 319 299 296 303 307 294 293 300 301 305 304 306 305 298 300 304 301 311
178 180 172 168 168 169 173 175 177 179 182 186 189 193 196 199 203 208 216 224 229 235 247 252 258 264 270 283 294 296 287 290 297 293 288 288 287 295 295 292 296 300 293 293 302 309 309
178 180 173 169 168 173 177 180 182 183 187 191 196 202 208 211 218 225 229 233 235 238 246 254 262 263 269 275 278 270 275 286 291 293 291 289 279 279 285 294 300 304 285 285 296 307 308
180 181 175 173 168 173 180 183 187 192 196 200 206 210 217 223 231 237 238 239 239 244 255 260 264 265 268 272 268 263 278 283 289 291 286 284 279 274 279 293 299 298 289 300 303 304 307
181 181 177 175 172 173 179 186 193 199 204 210 216 222 226 232 237 238 240 240 241 247 249 255 261 264 264 262 262 268 277 286 286 283 283 281 276 274 274 283 290 291 288 291 300 304 304
182 178 178 176 175 175 179 186 192 198 206 213 218 219 216 213 216 217 227 232 234 236 243 252 258 262 262 265 271 280 281 284 290 287 286 280 273 272 274 282 290 293 293 294 295 296 297
183 179 177 173 171 174 179 183 187 193 197 201 203 205 207 214 219 218 222 231 234 242 246 256 261 266 268 276 283 277 278 298 300 296 301 295 292 292 289 290 292 294 296 297 298 300 301
183 180 178 174 174 175 177 178 183 187 194 201 206 208 209 210 218 215 220 233 233 253 254 257 266 270 265 275 277 272 285 300 301 295 298 297 294 290 290 293 297 298 298 298 298 300 306
189 186 183 181 180 179 179 181 185 189 195 202 207 208 211 214 214 216 229 231 240 258 267 266 277 287 284 275 280 283 289 291 290 294 298 297 295 295 297 298 301 301 303 301 300 305 310
195 191 191 190 187 187 188 189 190 197 197 200 211 218 220 220 220 224 235 242 246 259 267 276 282 280 280 283 285 284 284 288 291 295 294 293 294 298 301 302 306 308 308 308 308 313 314
199 198 198 196 195 195 196 197 198 205 207 212 217 223 228 231 231 229 235 241 245 252 259 266 271 276 282 287 290 291 292 294 296 297 296 298 300 301 301 301 303 309 304 300 304 309 305
202 202 203 201 201 201 202 205 207 210 215 220 225 227 229 235 237 238 239 244 246 253 262 277 288 294 298 299 300 300 300 302 303 301 299 298 296 291 294 297 300 310 301 294 296 299 302
207 206 205 206 206 207 209 212 213 215 219 224 226 224 226 231 234 234 235 234 235 246 253 255 275 301 308 309 305 303 302 300 302 302 301 302 297 293 295 296 299 309 301 303 307 304 302
210 211 208 208 210 211 213 217 217 217 219 224 229 228 225 228 233 235 236 239 247 259 270 273 285 299 304 310 314 308 307 306 301 294 296 297 294 296 300 298 300 306 299 298 299 297 299
213 213 214 213 213 215 218 220 223 225 225 227 229 230 232 234 237 240 245 249 256 260 268 272 282 293 298 301 301 301 311 302 304 301 291 293 293 294 296 298 298 315 301 304 304 303 305
216 217 216 218 219 221 223 225 226 229 230 231 233 234 235 238 241 245 250 254 261 267 273 276 283 288 294 295 297 297 299 306 305 302 293 290 291 292 297 298 301 321 304 303 305 310 313
214 219 220 220 222 225 226 227 228 230 232 234 234 238 241 245 249 253 257 261 265 271 277 279 282 288 293 295 300 303 305 302 297 298 290 290 292 294 297 298 302 316 309 312 310 312 313
214 216 220 223 223 225 227 228 230 232 235 238 238 241 245 249 254 259 264 269 271 274 277 281 285 289 294 297 298 301 300 303 298 295 288 286 289 294 295 298 302 308 306 306 309 310 313
216 219 219 223 225 228 229 230 231 234 236 238 241 244 247 251 255 260 265 268 271 274 278 280 284 289 291 294 296 296 300 300 299 292 292 288 293 297 299 298 306 306 306 310 310 310 312
218 220 221 223 224 226 231 233 235 235 236 239 242 246 249 253 256 260 267 273 276 278 279 280 287 287 289 294 294 295 300 302 299 299 295 291 299 302 303 301 308 305 306 307 307 311 309